Powrót do katalogu

STARLINK-2196

AktywnyŁącznośćVLEO
NORAD 47773·PAYLOAD·🇺🇸 United States

Wystrzelony Mar 4, 2021 z Cape Canaveral Space Force Station

Loading…

Następne Przeloty (najbliższe 24 godziny)

TLE

ŚwieżeSource: CelesTrak SupGP

Epoka: Sep 14, 2026, 20:17 UTC

1 47773C 21017BD  26257.84562500  .00076039  00000+0  17747-2 0  2570
2 47773  53.1608  54.3763 0001352 326.0028   1.2882 15.41597022    11

Śledź STARLINK-2196 w czasie rzeczywistym z AllMySat

Download on the App Store